FW2418 Weather Reports


time (UTC)temp
F
wind
direction
speed
knots
gust
knots
rain 1hr
in
rain 24hr
in
rain mn
in
humidity
%
barometer
mb
20260505223636 79 122 1.7 6.1 0.00 0.00 0.00 55 1012.9
20260505222635 79 119 1.7 6.1 0.00 0.00 0.00 55 1012.9
20260505221634 79 88 2.6 5.2 0.00 0.00 0.00 54 1012.9
20260505220633 80 66 1.7 5.2 0.00 0.00 0.00 53 1012.9
20260505215632 80 51 2.6 6.1 0.00 0.00 0.00 53 1012.9
20260505214631 80 84 1.7 7.0 0.00 0.00 0.00 52 1012.9
20260505213631 81 77 2.6 6.1 0.00 0.00 0.00 53 1012.9
20260505212630 81 73 2.6 6.1 0.00 0.00 0.00 52 1012.9
20260505211629 82 38 2.6 6.1 0.00 0.00 0.00 52 1012.9
20260505210628 81 82 1.7 7.0 0.00 0.00 0.00 53 1012.6
20260505205627 82 57 2.6 6.1 0.00 0.00 0.00 52 1012.6
20260505204626 82 84 1.7 7.8 0.00 0.00 0.00 53 1012.6
20260505203625 81 45 2.6 7.0 0.00 0.00 0.00 53 1012.6
20260505202522 82 54 1.7 7.8 0.00 0.00 0.00 53 1012.9
20260505201521 82 52 1.7 7.0 0.00 0.00 0.00 52 1012.9
20260505200449 82 60 2.6 7.8 0.00 0.00 0.00 52 1013.3
20260505195448 83 44 3.5 7.8 0.00 0.00 0.00 52 1013.3
20260505194345 82 72 2.6 7.8 0.00 0.00 0.00 54 1013.3
20260505193344 82 30 2.6 9.6 0.00 0.00 0.00 54 1013.3
20260505192344 83 22 1.7 7.8 0.00 0.00 0.00 52 1013.3
20260505191311 84 15 3.5 8.7 0.00 0.00 0.00 51 1013.3
20260505190311 84 26 2.6 7.8 0.00 0.00 0.00 50 1013.3
20260505185309 83 21 1.7 5.2 0.00 0.00 0.00 51 1014.0
20260505184135 85 72 1.7 6.1 0.00 0.00 0.00 49 1013.6
20260505183134 86 28 1.7 7.0 0.00 0.00 0.00 48 1013.6
20260505182133 84 181 1.7 5.2 0.00 0.00 0.00 51 1013.6
20260505181133 84 74 1.7 6.1 0.00 0.00 0.00 51 1014.0
20260505180132 81 66 2.6 7.0 0.00 0.00 0.00 54 1014.3
20260505175131 81 38 2.6 5.2 0.00 0.00 0.00 55 1014.0
20260505174130 81 35 0.9 6.1 0.00 0.00 0.00 55 1014.0
20260505173129 80 92 0.9 6.1 0.00 0.00 0.00 56 1014.3
20260505172128 81 54 2.6 6.1 0.00 0.00 0.00 55 1014.3
20260505171127 82 56 1.7 7.8 0.00 0.00 0.00 55 1014.3
20260505170126 83 54 2.6 8.7 0.00 0.00 0.00 53 1014.3
20260505165125 84 40 2.6 7.0 0.00 0.00 0.00 51 1014.7
20260505164124 84 48 2.6 7.8 0.00 0.00 0.00 52 1014.3
20260505163123 83 122 2.6 6.1 0.00 0.00 0.00 54 1014.3
20260505162123 83 125 1.7 7.0 0.00 0.00 0.00 54 1014.3
20260505161121 82 63 1.7 7.0 0.00 0.00 0.00 54 1014.6
20260505153015 80 58 1.7 5.2 0.00 0.00 0.00 57 1014.3
20260505151943 81 21 1.7 6.1 0.00 0.00 0.00 56 1014.3
20260505150942 81 112 2.6 6.1 0.00 0.00 0.00 55 1014.3
20260505124551 72 55 1.7 3.5 0.00 0.00 0.00 80 1014.0
20260505123551 71 42 1.7 2.6 0.00 0.00 0.00 83 1014.0
20260505122550 69 107 0.9 1.7 0.00 0.00 0.00 86 1014.0
20260505121549 67 105 0.9 0.9 0.00 0.00 0.00 91 1014.0
20260505120548 63 82 0.9 0.9 0.00 0.00 0.00 97 1013.6
20260505115547 60 129 0.0 0.0 0.00 0.00 0.00 98 1013.6
20260505114515 59 129 0.0 0.0 0.00 0.00 0.00 98 1013.9
20260505113514 58 129 0.0 0.0 0.00 0.00 0.00 98 1013.6
20260505112513 57 128 0.0 0.0 0.00 0.00 0.00 98 1013.6
20260505111513 56 128 0.0 0.0 0.00 0.00 0.00 98 1013.3
20260505110512 56 129 0.0 0.0 0.00 0.00 0.00 97 1013.3
20260505101436 56 129 0.0 0.0 0.00 0.00 0.00 97 1013.3
20260505100435 56 129 0.0 0.0 0.00 0.00 0.00 97 1012.9
20260505095434 56 128 0.0 0.0 0.00 0.00 0.00 97 1012.9
20260505094433 56 129 0.0 0.0 0.00 0.00 0.00 97 1012.6
20260505093432 56 128 0.0 0.0 0.00 0.00 0.00 97 1012.9
20260505092431 57 128 0.0 0.0 0.00 0.00 0.00 97 1012.6
20260505091359 57 129 0.0 0.0 0.00 0.00 0.00 97 1012.6
20260505090358 57 129 0.0 0.0 0.00 0.00 0.00 97 1012.6
20260505085358 57 129 0.0 0.0 0.00 0.00 0.00 97 1012.6
20260505084356 57 128 0.0 0.0 0.00 0.00 0.00 97 1012.6
20260505083356 56 128 0.0 0.0 0.00 0.00 0.00 96 1012.6
20260505082354 56 128 0.0 0.0 0.00 0.00 0.00 96 1012.3
20260505081354 57 129 0.0 0.0 0.00 0.00 0.00 96 1012.3
20260505080353 57 129 0.0 0.0 0.00 0.00 0.00 96 1012.6
20260505075352 57 128 0.0 0.0 0.00 0.00 0.00 96 1012.6
20260505074351 57 129 0.0 0.0 0.00 0.00 0.00 96 1012.6
20260505073350 57 128 0.0 0.0 0.00 0.00 0.00 96 1012.6
20260505072349 57 128 0.0 0.0 0.00 0.00 0.00 96 1012.6
20260505071348 57 128 0.0 0.0 0.00 0.00 0.00 96 1012.6
20260505070316 58 128 0.0 0.0 0.00 0.00 0.00 96 1012.6
20260505065315 58 128 0.0 0.0 0.00 0.00 0.00 96 1012.6
20260505064243 58 128 0.0 0.0 0.00 0.00 0.00 95 1012.9
20260505063242 58 128 0.0 0.0 0.00 0.00 0.00 95 1012.9
20260505062241 59 129 0.0 0.0 0.00 0.00 0.00 95 1012.9
20260505061240 59 129 0.0 0.0 0.00 0.00 0.00 95 1012.9
20260505060239 59 128 0.0 0.0 0.00 0.00 0.00 95 1012.9
20260505055207 59 128 0.0 0.0 0.00 0.00 0.00 94 1013.3
20260505054206 59 129 0.0 0.0 0.00 0.00 0.00 94 1013.3
20260505053205 59 129 0.0 0.0 0.00 0.00 0.00 94 1013.6
20260505052205 59 129 0.0 0.0 0.00 0.00 0.00 94 1013.6
20260505051132 60 128 0.0 0.0 0.00 0.00 0.00 93 1014.0
20260505050132 60 129 0.0 0.0 0.00 0.00 0.00 93 1014.0
20260505041128 61 129 0.0 0.0 0.00 0.00 0.00 89 1014.0
20260505040127 62 128 0.0 0.0 0.00 0.00 0.00 89 1014.0
20260505035126 62 129 0.0 0.0 0.00 0.00 0.00 88 1014.3
20260505034053 62 128 0.0 0.0 0.00 0.00 0.00 86 1014.3
20260505033053 63 129 0.0 0.0 0.00 0.00 0.00 86 1014.3
20260505032021 64 129 0.0 0.0 0.00 0.00 0.00 85 1014.3
20260505031020 64 128 0.0 0.0 0.00 0.00 0.00 82 1014.6
20260505030019 65 129 0.0 0.9 0.00 0.00 0.00 81 1014.3
20260505025019 65 128 0.0 0.9 0.00 0.00 0.00 80 1014.3
20260505024018 65 128 0.0 0.0 0.00 0.00 0.00 79 1014.6
20260505023017 66 128 0.0 0.9 0.00 0.00 0.00 78 1014.6
20260505022016 66 128 0.0 0.9 0.00 0.00 0.00 77 1014.6
20260505021015 66 131 0.0 0.9 0.00 0.00 0.00 77 1014.6
20260505020015 66 131 0.0 0.9 0.00 0.00 0.00 77 1014.3
20260505015013 67 131 0.0 0.0 0.00 0.00 0.00 76 1014.3
20260505014012 67 131 0.0 0.0 0.00 0.00 0.00 75 1014.0
20260505013012 67 131 0.0 0.9 0.00 0.00 0.00 74 1014.0
20260505012011 68 131 0.0 0.9 0.00 0.00 0.00 73 1014.0
20260505011010 68 131 0.0 0.9 0.00 0.00 0.00 72 1013.6
20260505010009 69 131 0.0 0.9 0.00 0.00 0.00 70 1014.0
20260505005008 70 131 0.0 1.7 0.00 0.00 0.00 69 1013.6
20260505004007 70 132 0.9 3.5 0.00 0.00 0.00 67 1013.6
20260505003006 71 125 0.9 3.5 0.00 0.00 0.00 66 1013.6
20260505002005 71 128 0.0 4.3 0.00 0.00 0.00 65 1013.6
20260505001004 72 120 1.7 5.2 0.00 0.00 0.00 64 1013.3
20260505000003 72 125 0.9 5.2 0.00 0.00 0.00 63 1013.3
20260504235002 73 134 1.7 5.2 0.00 0.00 0.00 62 1013.3
20260504233930 73 105 0.9 6.1 0.00 0.00 0.00 61 1012.9
20260504232929 74 116 2.6 7.0 0.00 0.00 0.00 60 1012.9
20260504231928 74 123 1.7 7.0 0.00 0.00 0.00 60 1012.9
20260504230927 75 110 1.7 7.0 0.00 0.00 0.00 60 1012.9
20260504225926 75 96 3.5 6.1 0.00 0.00 0.00 58 1012.9
20260504224925 75 119 3.5 7.0 0.00 0.00 0.00 58 1012.9